Regional Weather Roundup
Issued by NWS Green Bay, WI

Home | Current Version | Previous Version | Graphics & Text | Print | Product List | Glossary Off
Versions: 1 2 3 4 5 6 7 8 9 10 11 12 13 14 15 16 17 18 19 20 21 22 23 24 25 26 27 28 29 30 31 32 33 34 35 36 37 38 39 40 41 42 43 44 45 46 47 48 49 50

242
ASUS43 KGRB 270800
RWRGRB

NORTH-CENTRAL AND NORTHEAST WISCONSIN REGIONAL WEATHER ROUNDUP
NATIONAL WEATHER SERVICE GREEN BAY WI
200 AM CST MON FEB 27 2017

WIZ005-009-010>012-018-019-270900-
NORTH CENTRAL WISCONSIN

CITY           SKY/WX    TMP DP  RH WIND       PRES   REMARKS
IRONWOOD       CLEAR     -5  -9  83 CALM      29.98R
MANITOWISH WTR NOT AVBL
ARBOR VITAE    NOT AVBL
EAGLE RIVER    NOT AVBL
LAND O LAKES   NOT AVBL
RHINELANDER    PTCLDY   N/A N/A N/A CALM      29.98R
PHILLIPS       NOT AVBL
ANTIGO         NOT AVBL
TOMAHAWK       NOT AVBL
MERRILL        NOT AVBL
$$

WIZ013-073-270900-
NORTHEAST WISCONSIN

CITY           SKY/WX    TMP DP  RH WIND       PRES   REMARKS
IRON MOUNTAIN  CLEAR      5   1  83 CALM      29.99R
MARINETTE      CLEAR     22  12  65 NW3       30.06R
$$

WIZ017-030-035>037-045-270900-
CENTRAL WISCONSIN

CITY           SKY/WX    TMP DP  RH WIND       PRES   REMARKS
MEDFORD        NOT AVBL
WAUSAU         CLOUDY    22  15  75 SE3       29.99R
MOSINEE        NOT AVBL
MARSHFIELD     MOCLDY    21  18  88 CALM      29.98R
WISC RAPIDS    CLEAR     20  19  96 CALM      30.03R
STEVENS POINT  NOT AVBL
WAUPACA        NOT AVBL
SHAWANO        NOT AVBL
CLINTONVILLE   NOT AVBL
WAUTOMA        NOT AVBL
$$

WIZ038-039-048-051-270900-
FOX VALLEY

CITY           SKY/WX    TMP DP  RH WIND       PRES   REMARKS
NWS GREEN BAY  CLEAR     26  22  84 NW3       30.04R
APPLETON       NOT AVBL
OSHKOSH        PTCLDY    27  20  75 W3        30.04R
FOND DU LAC    PTCLDY    27  19  72 SW3       30.05R
$$

WIZ022-050-052-270900-
EAST CENTRAL WISCONSIN

CITY           SKY/WX    TMP DP  RH WIND       PRES   REMARKS
EPHRAIM        NOT AVBL
WASHINGTON ISL NOT AVBL
STURGEON BAY   MOCLDY    24  17  74 N6        30.06R
MANITOWOC      NOT AVBL
SHEBOYGAN      PTCLDY    29  21  72 W6        30.06R
$$

LMZ563-521-522-541>543-270900-
LAKESHORE

STATION/POSITION TIME  TEMP    WIND        PRES    VSBY  WAVE
                       AIR SEA DIR/SP/G                  HT/PER
                 (UTC) (F)     (DEG/KT/KT) (MB)    (MI)  (FT/S)
SHEBOYGAN LKSHOR 0700   32     240/  6/  7 1017.8R
KEWAUNEE LKSHORE 0730   29     340/  4/  7 1016.7R
NORTHPORT PIER   0740   25     320/ 10/ 12 1017.6R
SISTER BAY LKSHO 0705   24     340/ 12/ 14   N/A
CHAMBERS ISLAND  0740   24     310/ 10/ 13 1016.9R
MENOMINEE LKSHOR 0730   25     330/  8/ 10 1016.5R
$$




USA.gov is the U.S. government's official web portal to all federal, state and local government web resources and services.